Starlink 30148

operational
NORAD ID: 57617 Int'l Des: 2023-119 Owner: SPXS Country: US Constellation: starlink
LEOCIRCULAR

Über Starlink 30148

Beschreibung wird geladen...

Live-Position

3D-Globus wird geladen...

Nächste Überflüge

Höhenverlauf

Altitude vs Time

uPlot chart will show altitude changes over time

Zweizeiliger Elementsatz

1 57617U 23119R 25352.21106148 -.00000526 00000-0 -23840-4 0 9998
2 57617 43.0032 164.8401 0001460 256.6704 103.3975 15.02540199130823
Epoch: 18. Dez. 2025 • Age: 12 hours

Aktueller Status

Höhe 564.6 km
Geschwindigkeit 7.58 km/s
Subsatellitenpunkt -25.36°S, 26.85°E
Startdatum 11. Aug. 2023
Alter 2.3 years
Typ internet

Technische Details

Klassifizierung Payload
Masse 730.00 kg
Trockenmasse 700.00 kg
Gesamtmasse 730.00 kg
Länge 0.30 m
Durchmesser 4.10 m
Spannweite 29.00 m
Form Box + pan
Hersteller SPXS
Bus-Typ Starlink V2M
Phasenstatus In Orbit
Besitzer/Staat SPXS/US

Große Konstellationen

Loading constellations...